Portada
METAR-TAF:

METAR-TAF

Aeroports :

Jesaq, Iran

latitud: 26-38N, longitud: 057-46E, altitud: 3 m

Observació

L'informe es va fer fa 12 minuts, a les 14:00 UTC
Vent 6 kt del Sud/Sud-Oest
Temperatura 33°C
Humitat 80%
Pressió 991 hPa
Visibilitat: 8000 m

METAR: OIZJ 141400Z 20006KT 8000 NSC 33/29 Q0991

Hora: 18:42 (14:12 UTC)


TAF: manca

Observacions i pronòstics meteorològics de més de 4000 aeroports (METAR i TAF).

Les estacions disponibles són els punts grocs i vermells al mapa.

Posi el ratolí al punt desitjat per veure el nom de l'estació.

Feu clic per veure les observacions i els pronòstics meteorològics.

Per canviar el mapa: feu clic els botons verds amb una creu de color negre per apropar; al botó verd amb un guió per allunyar la imatge; o en les fletxes verdes per a mapes adjacents.


METAR-TAF: